IONOSFERA-M A

Last updated on Sat Jul 26 2025 00:02:08 GMT+0000 (Coordinated Universal Time)

1 64876U 25155A 25206.67935485 -.00000042 00000+0 00000+0 0 9996 2 64876 98.5512 172.6227 0002496 81.7648 25.3115 14.21336367 19

Satellite not in orbit

IONOSFERA-M A